Location: Cargill Incorporated Elevator
(42.7294°N, 93.7333°W)
Time: 12:37:34
(UTC+00:00)

Helios 1A Rocket - Pass Details

Date: 19 April 2026
Orbit: 406 x 416 km, 98.3° (Epoch: 11 May)

Event Time Altitude Azimuth Distance (km) Brightness Sun altitude
Rises 01:43:44 0° 21° (NNE) 2,380 6.1 -8.3°
Reaches altitude 10° 01:45:51 10° 30° (NNE) 1,508 5.0 -8.6°
Maximum altitude 01:48:52 37° 100° (E) 671 2.8 -9.1°
Drops below altitude 10° 01:51:50 10° 169° (S) 1,486 4.7 -9.6°
Sets 01:53:54 0° 178° (S) 2,339 5.8 -9.9°
